Regional Weather Roundup
Issued by NWS

Home | Current Version | Previous Version | Graphics & Text | Print | Product List | Glossary On
Versions: 1 2 3 4 5 6 7 8 9 10 11 12 13 14 15 16 17 18 19 20 21 22 23 24 25 26 27 28 29 30 31 32 33 34 35 36 37 38 39 40 41 42 43 44 45 46 47 48 49 50
253
ASUS43 KLMK 272002
RWRKY
KENTUCKY REGIONAL WEATHER ROUNDUP
NATIONAL WEATHER SERVICE LOUISVILLE KY
400 PM EDT WED JUL 27 2016

NOTE "FAIR" INDICATES FEW OR NO CLOUDS BELOW 12,000 FEET
WITH NO SIGNIFICANT WEATHER AND/OR OBSTRUCTIONS TO VISIBILITY.

KYZ001>023-026-027-061>063-070>075-272100-
WESTERN AND SOUTH CENTRAL KENTUCKY

CITY           SKY/WX    TMP DP  RH WIND       PRES   REMARKS
PADUCAH        PTSUNNY   89  76  65 E5        29.90F HX 100
HENDERSON      CLOUDY    90  75  62 CALM      29.92F HX 100
OWENSBORO      MOSUNNY   91  78  65 S6        29.94F HX 105
HOPKINSVILLE   MOSUNNY   91  75  60 S7        29.93F HX 101
BOWLING GREEN  MOSUNNY   92  74  55 SW7       29.95F HX 101
GLASGOW        NOT AVBL
$$

KYZ024-025-028>034-038-045-046-053-272100-
NORTH CENTRAL KENTUCKY

CITY           SKY/WX    TMP DP  RH WIND       PRES   REMARKS
LOUISVILLE/SDF CLOUDY    90  72  55 SW7       29.95F HX  97
LOUISVILLE/LOU PTSUNNY   90  71  53 W6        29.95F HX  96
FORT KNOX      CLOUDY    86  72  62 VRB3      29.95F HX  92
$$

KYZ035>037-039>044-047>052-055>060-089>105-272100-
NORTHEAST KENTUCKY

CITY           SKY/WX    TMP DP  RH WIND       PRES   REMARKS
LEXINGTON      CLOUDY    84  73  69 W6        29.99F HX  90
COVINGTON      CLOUDY    86  72  62 W5        29.98F HX  92
FRANKFORT      CLOUDY    86  74  67 W6        29.96F HX  94
$$

KYZ054-064>069-076>088-106>120-272100-
SOUTHEAST KENTUCKY

CITY           SKY/WX    TMP DP  RH WIND       PRES   REMARKS
JACKSON        SUNNY     90  74  59 VRB3      30.00F HX  99
LONDON         PTSUNNY   92  69  47 VRB3      29.99F HX  97
SOMERSET       CLOUDY    88  70  55 W8        29.98F HX  92
MIDDLESBORO    SUNNY     95  71  45 W7        29.98F HX 101
MONTICELLO     PTCLDY   N/A N/A N/A VRB5      30.00F
$$





USA.gov is the U.S. government's official web portal to all federal, state and local government web resources and services.